NKS1776 KMEM-KDCA

Flight info

Callsign NKS1776
Flight time N/A
Altitude 37000
Route GOETZ7 DIYAB WAKOL Q34 SITTR TRUPS5
Aircraft A320/M-SDE3FGHIRWY/LB1

Departure

Time 2026-05-06 21:28
Airport Memphis International Airport (KMEM)

Arrival

Time N/A
Airport Ronald Reagan Washington National Airport (KDCA)
Time Latitude Longitude Altitude Speed Heading
2026-05-06 21:04 35.04058 -89.98008 344 ft 0 kts 44°
2026-05-06 21:14 35.04048 -89.98019 344 ft 2 kts 44°
2026-05-06 21:14 35.04037 -89.98032 344 ft 2 kts 44°
2026-05-06 21:15 35.04026 -89.98044 344 ft 2 kts 31°
2026-05-06 21:15 35.04013 -89.98051 344 ft 2 kts 17°
2026-05-06 21:15 35.03998 -89.98058 344 ft 2 kts 39°
2026-05-06 21:15 35.03988 -89.98071 344 ft 2 kts 63°
2026-05-06 21:16 35.03984 -89.98089 344 ft 2 kts 89°
2026-05-06 21:16 35.03984 -89.98094 344 ft 0 kts 96°
2026-05-06 21:18 35.03984 -89.98093 344 ft 0 kts 96°
2026-05-06 21:18 35.03983 -89.98080 344 ft 0 kts 96°
2026-05-06 21:20 35.03982 -89.98073 344 ft 4 kts 101°
2026-05-06 21:21 35.03940 -89.98035 344 ft 9 kts 178°
2026-05-06 21:21 35.03868 -89.98033 344 ft 10 kts 180°
2026-05-06 21:21 35.03805 -89.98055 344 ft 9 kts 233°
2026-05-06 21:21 35.03795 -89.98136 344 ft 10 kts 270°
2026-05-06 21:22 35.03795 -89.98232 344 ft 11 kts 270°
2026-05-06 21:22 35.03793 -89.98334 344 ft 12 kts 268°
2026-05-06 21:22 35.03790 -89.98445 344 ft 13 kts 269°
2026-05-06 21:22 35.03784 -89.98556 344 ft 10 kts 251°
2026-05-06 21:23 35.03721 -89.98583 344 ft 11 kts 184°
2026-05-06 21:23 35.03639 -89.98582 344 ft 12 kts 178°
2026-05-06 21:23 35.03550 -89.98579 344 ft 13 kts 179°
2026-05-06 21:23 35.03455 -89.98577 344 ft 14 kts 180°
2026-05-06 21:24 35.03356 -89.98577 344 ft 14 kts 179°
2026-05-06 21:24 35.03250 -89.98573 344 ft 15 kts 178°
2026-05-06 21:24 35.03141 -89.98570 344 ft 15 kts 179°
2026-05-06 21:24 35.03029 -89.98568 344 ft 16 kts 180°
2026-05-06 21:25 35.02914 -89.98566 344 ft 16 kts 179°
2026-05-06 21:25 35.02796 -89.98563 344 ft 17 kts 179°
2026-05-06 21:25 35.02675 -89.98560 344 ft 17 kts 179°
2026-05-06 21:25 35.02553 -89.98559 344 ft 17 kts 179°
2026-05-06 21:26 35.02441 -89.98556 344 ft 8 kts 182°
2026-05-06 21:26 35.02420 -89.98563 344 ft 0 kts 213°
2026-05-06 21:26 35.02411 -89.98573 344 ft 2 kts 233°
2026-05-06 21:26 35.02405 -89.98611 344 ft 8 kts 272°
2026-05-06 21:27 35.02411 -89.98679 344 ft 4 kts 306°
2026-05-06 21:27 35.02443 -89.98689 344 ft 0 kts 358°
2026-05-06 21:27 35.02558 -89.98692 344 ft 49 kts 358°
2026-05-06 21:28 35.03144 -89.98704 344 ft 115 kts 359°
2026-05-06 21:28 35.04130 -89.98731 468 ft 155 kts 359°
2026-05-06 21:28 35.05212 -89.98751 1044 ft 159 kts 359°
2026-05-06 21:28 35.06295 -89.98813 1776 ft 156 kts
2026-05-06 21:29 35.07326 -89.98530 2379 ft 158 kts 27°
2026-05-06 21:29 35.08282 -89.97765 2701 ft 173 kts 33°
2026-05-06 21:29 35.09302 -89.96867 3010 ft 190 kts 33°
2026-05-06 21:29 35.10450 -89.95888 3299 ft 211 kts 32°
2026-05-06 21:30 35.11721 -89.94835 3702 ft 229 kts 31°
2026-05-06 21:30 35.13074 -89.93689 4106 ft 248 kts 38°
2026-05-06 21:30 35.14081 -89.91905 4576 ft 271 kts 69°
2026-05-06 21:30 35.14276 -89.89590 5273 ft 281 kts 90°
2026-05-06 21:31 35.14179 -89.87169 5957 ft 289 kts 91°
2026-05-06 21:31 35.14101 -89.84707 6583 ft 297 kts 88°
2026-05-06 21:31 35.14246 -89.82173 7274 ft 302 kts 80°
2026-05-06 21:31 35.14620 -89.79638 7952 ft 308 kts 77°
2026-05-06 21:32 35.15057 -89.77106 8662 ft 312 kts 77°
2026-05-06 21:32 35.15965 -89.71871 9961 ft 322 kts 78°
2026-05-06 21:32 35.16426 -89.69159 10431 ft 333 kts 79°
2026-05-06 21:33 35.16905 -89.66303 10742 ft 349 kts 80°
2026-05-06 21:33 35.17391 -89.63397 11207 ft 358 kts 80°
2026-05-06 21:33 35.17891 -89.60395 11790 ft 363 kts 81°
2026-05-06 21:33 35.18396 -89.57358 12322 ft 369 kts 81°
2026-05-06 21:34 35.18908 -89.54273 12832 ft 375 kts 82°
2026-05-06 21:34 35.19434 -89.51109 13337 ft 380 kts 83°
2026-05-06 21:34 35.19844 -89.47929 13862 ft 382 kts 88°
2026-05-06 21:34 35.20094 -89.44684 14360 ft 386 kts 90°
2026-05-06 21:35 35.20302 -89.41422 14860 ft 391 kts 90°
2026-05-06 21:35 35.20507 -89.38108 15354 ft 396 kts 90°
2026-05-06 21:35 35.20721 -89.34706 15803 ft 402 kts 90°
2026-05-06 21:35 35.20945 -89.31287 16237 ft 407 kts 90°
2026-05-06 21:36 35.21173 -89.27814 16683 ft 412 kts 90°
2026-05-06 21:36 35.21433 -89.24309 17084 ft 418 kts 86°
2026-05-06 21:36 35.21936 -89.20784 17496 ft 426 kts 79°
2026-05-06 21:36 35.22726 -89.17319 17896 ft 432 kts 74°
2026-05-06 21:37 35.23666 -89.13808 18293 ft 437 kts 71°
2026-05-06 21:37 35.24759 -89.10342 18740 ft 440 kts 66°
2026-05-06 21:37 35.26066 -89.06950 19202 ft 442 kts 62°
2026-05-06 21:37 35.27459 -89.03593 19656 ft 444 kts 62°
2026-05-06 21:38 35.28864 -89.00236 20104 ft 446 kts 61°
2026-05-06 21:38 35.30273 -88.96855 20546 ft 448 kts 60°
2026-05-06 21:38 35.31679 -88.93449 20993 ft 450 kts 60°
2026-05-06 21:38 35.33089 -88.90009 21383 ft 453 kts 60°
2026-05-06 21:39 35.34494 -88.86572 21797 ft 455 kts 60°
2026-05-06 21:39 35.35920 -88.83076 22193 ft 458 kts 60°
2026-05-06 21:39 35.37338 -88.79591 22592 ft 460 kts 60°
2026-05-06 21:39 35.38760 -88.76088 23009 ft 461 kts 60°
2026-05-06 21:40 35.40196 -88.72555 23390 ft 464 kts 60°
2026-05-06 21:40 35.41634 -88.69013 23751 ft 466 kts 60°
2026-05-06 21:40 35.43080 -88.65447 24116 ft 469 kts 60°
2026-05-06 21:40 35.44546 -88.61829 24440 ft 472 kts 60°
2026-05-06 21:41 35.45988 -88.58260 24773 ft 476 kts 60°
2026-05-06 21:41 35.47472 -88.54579 25095 ft 479 kts 61°
2026-05-06 21:41 35.48949 -88.50922 25427 ft 482 kts 60°
2026-05-06 21:41 35.50427 -88.47247 25766 ft 484 kts 61°
2026-05-06 21:42 35.51927 -88.43520 26061 ft 488 kts 60°
2026-05-06 21:42 35.53429 -88.39777 26373 ft 491 kts 61°
2026-05-06 21:42 35.54944 -88.36008 26675 ft 494 kts 60°
2026-05-06 21:42 35.56451 -88.32239 27004 ft 496 kts 62°
2026-05-06 21:43 35.57977 -88.28439 27292 ft 499 kts 62°
2026-05-06 21:43 35.59513 -88.24590 27555 ft 502 kts 62°
2026-05-06 21:43 35.61052 -88.20732 27851 ft 504 kts 62°
2026-05-06 21:43 35.62597 -88.16862 28131 ft 506 kts 62°
2026-05-06 21:44 35.64146 -88.12974 28392 ft 509 kts 62°
2026-05-06 21:44 35.65709 -88.09052 28653 ft 512 kts 62°
2026-05-06 21:44 35.67264 -88.05152 28886 ft 515 kts 62°
2026-05-06 21:44 35.68842 -88.01159 29141 ft 518 kts 62°
2026-05-06 21:45 35.70412 -87.97202 29531 ft 517 kts 62°
2026-05-06 21:45 35.71993 -87.93207 29880 ft 517 kts 62°
2026-05-06 21:45 35.73555 -87.89239 30107 ft 520 kts 62°
2026-05-06 21:45 35.75141 -87.85237 30337 ft 523 kts 62°
2026-05-06 21:46 35.76725 -87.81218 30593 ft 525 kts 62°
2026-05-06 21:46 35.78309 -87.77151 30830 ft 528 kts 63°
2026-05-06 21:46 35.79769 -87.73000 31082 ft 531 kts 65°
2026-05-06 21:46 35.81169 -87.68784 31291 ft 534 kts 66°
2026-05-06 21:47 35.82563 -87.64508 31525 ft 536 kts 66°
2026-05-06 21:47 35.83936 -87.60290 31731 ft 539 kts 66°
2026-05-06 21:47 35.85343 -87.55971 31940 ft 541 kts 66°
2026-05-06 21:47 35.86738 -87.51705 32156 ft 544 kts 65°
2026-05-06 21:48 35.88167 -87.47346 32359 ft 546 kts 65°
2026-05-06 21:48 35.89589 -87.43007 32589 ft 548 kts 65°
2026-05-06 21:48 35.91011 -87.38666 32790 ft 551 kts 66°
2026-05-06 21:48 35.92439 -87.34300 33049 ft 551 kts 66°
2026-05-06 21:49 35.93874 -87.29903 33275 ft 552 kts 66°
2026-05-06 21:49 35.95309 -87.25472 33518 ft 553 kts 66°
2026-05-06 21:49 35.96730 -87.21111 33757 ft 554 kts 66°
2026-05-06 21:49 35.98149 -87.16719 34064 ft 553 kts 65°
2026-05-06 21:50 35.99569 -87.12336 34366 ft 552 kts 65°
2026-05-06 21:50 36.01008 -87.07900 34614 ft 552 kts 65°
2026-05-06 21:50 36.02436 -87.03494 34892 ft 552 kts 65°
2026-05-06 21:50 36.03844 -86.99130 35179 ft 551 kts 65°
2026-05-06 21:51 36.05262 -86.94745 35402 ft 551 kts 65°
2026-05-06 21:51 36.06673 -86.90354 35575 ft 553 kts 65°
2026-05-06 21:51 36.08094 -86.85910 35802 ft 553 kts 65°
2026-05-06 21:51 36.09506 -86.81519 35981 ft 554 kts 64°
2026-05-06 21:52 36.10925 -86.77088 36166 ft 555 kts 65°
2026-05-06 21:52 36.12340 -86.72656 36315 ft 556 kts 64°
2026-05-06 21:52 36.13759 -86.68222 36449 ft 558 kts 65°
2026-05-06 21:52 36.15188 -86.63797 36598 ft 558 kts 64°
2026-05-06 21:53 36.16650 -86.59297 36777 ft 559 kts 64°
2026-05-06 21:53 36.18104 -86.54823 36939 ft 560 kts 64°
2026-05-06 21:53 36.21002 -86.45895 37000 ft 562 kts 63°